Regional Weather Roundup
Issued by NWS Wakefield, VA

Home | Current Version | Previous Version | Text Only | Print | Product List | Glossary Off
Versions: 1 2 3 4 5 6 7 8 9 10 11 12 13 14 15 16 17 18 19 20 21 22 23 24 25 26 27 28 29 30 31 32 33 34 35 36 37 38 39 40 41 42 43 44 45 46 47 48 49 50

000
ASUS41 KAKQ 220610
RWRAKQ

REGIONAL WEATHER ROUNDUP
NATIONAL WEATHER SERVICE WAKEFIELD VA
100 AM EST MON DEC 22 2014

Note: "fair" indicates few or no clouds below 12,000 feet with no
significant weather and/or obstructions to visibility. * = Denotes
station may not report precipitation (e.g., rain,snow,etc.),
thunder or fog.

VAZ042-051-052>054-056-220700-
NORTHERN VIRGINIA

CITY           SKY/WX    TMP DP  RH WIND       PRES   REMARKS
WASH NATIONAL  MOCLDY    34  25  69 NE3       30.35R
DULLES         PTCLDY    24  20  84 CALM      30.32S
FORT BELVOIR   PTCLDY    26  23  89 CALM      30.34S
QUANTICO       MOCLDY    30  25  81 VRB5      30.34F
FREDERICKSBRG* CLOUDY    31  28  90 CALM      30.31F
STAFFORD*      MOCLDY    26  26 100 CALM      30.35F
WARRENTON      MOCLDY    25  25 100 CALM      30.31S
CULPEPER*      MOCLDY    25  25 100 CALM      30.31S
MANASSAS*      PTCLDY    23  23 100 CALM      30.33S
LEESBURG*      CLEAR     28  27  93 CALM      30.33S
WINCHESTER     PTCLDY    27  21  80 CALM      30.28F
FRONT ROYAL*   CLOUDY    27  23  86 CALM      30.28S
LURAY*         CLOUDY    27  27 100 CALM      30.26F
$$

VAZ048-049-060>072-079>083-220700-
CENTRAL AND SOUTH CENTRAL VIRGINIA

CITY           SKY/WX    TMP DP  RH WIND       PRES   REMARKS
RICHMOND       CLOUDY    35  28  75 NE5       30.29F
CHESTERFIELD*  CLOUDY    36  19  51 NE3       30.30F
PETERSBURG*    CLOUDY    36  33  87 NE3       30.29F
HANOVER        CLOUDY    34  28  79 CALM      30.31F
TAPPAHANNOCK*  CLOUDY    33  29  86 CALM      30.31F
QUINTON*       CLOUDY    32  29  88 CALM      30.29F
CHARLOTTSVILLE CLOUDY    33  26  75 CALM      30.29S
GORDONSVILLE*  CLOUDY    30  27  90 CALM      30.29F
ORANGE*        CLOUDY    32  30  93 CALM      30.31S
LOUISA*        CLOUDY    34  28  80 CALM      30.28S
BUMPASS*       CLOUDY    32  28  82 CALM      30.29F
FARMVILLE*     CLOUDY    38  30  71 CALM      30.26F
CREWE*         CLOUDY    34  29  83 CALM      30.27F
FORT PICKETT*  CLOUDY    35  30  82 NE7       30.27S
CHASE CITY*    CLOUDY    37  32  80 E3        30.25F
CLARKSVILLE*   CLOUDY    36  30  80 NE3       30.24F
SOUTH HILL*    CLOUDY    35  30  83 N5        30.31F
LAWRENCEVILLE* CLOUDY    35  31  83 CALM      30.27R
EMPORIA*       CLOUDY    34  32  93 MISG        N/A
$$

VAZ088>098-220700-
SOUTHEAST VIRGINIA

CITY           SKY/WX    TMP DP  RH WIND       PRES   REMARKS
NORFOLK        CLOUDY    41  34  76 NE14      30.27F
VIRGINIA BEACH CLOUDY    43  35  73 NE9       30.26F
NORFOLK NAVAL  CLOUDY    43  33  68 NE13      30.28F
WEST POINT*    CLOUDY    36  29  76 CALM      30.32F
SALUDA*        MOCLDY    37  30  78 NE3       30.30F
NEWPORT NEWS   CLOUDY    37  30  75 NE7       30.28F
LANGLEY AFB    CLOUDY    38  33  82 NE12      30.28F
FORT EUSTIS    CLOUDY    37  31  79 N2        30.27F
WILLIAMSBURG*  CLOUDY    37  34  87 CALM      30.30S
HR EXEC AP*    CLOUDY    36  32  87 NE5       30.29S
FRANKLIN*      CLOUDY    36  32  87 NE5       30.26F
WAKEFIELD      CLOUDY    35  30  82 CALM      30.28F
$$

VAZ020-022-025-037-045-220700-
WEST CENTRAL AND SOUTHWEST VIRGINIA

CITY           SKY/WX    TMP DP  RH WIND       PRES   REMARKS
STAUNTON*      CLOUDY    32  27  82 CALM      30.27F
WAYNESBORO*    CLOUDY    33  26  73 SE6       30.24F
HOT SPRINGS VA FOG       29  29 100 SE7       30.11S VSB 1/2
LYNCHBURG      CLOUDY    37  28  70 NE7       30.26F
DANVILLE       CLOUDY    39  30  70 NE7       30.24F
SOUTH BOSTON*  CLOUDY    37  29  74 CALM      30.25F
MARTINSVILLE   CLOUDY    40  32  74 E3        30.25F
ROANOKE        CLOUDY    38  28  67 E9        30.25F
BLACKSBURG     CLOUDY    36  30  79 E6        30.21F
DUBLIN*        CLOUDY    38  34  84 SE9       30.19S
MARION*        CLOUDY    38  35  88 E8        30.16F
HILLSVILLE*    CLOUDY    34  32  92 SE3       30.15F
RICHLANDS*     MOCLDY    38  32  80 SE10G17   30.08F
WISE*          FAIR      37  32  81 S8        30.08F
ABINGDON*      MOCLDY    40  35  81 E8        30.09F
$$

MDZ021>025-VAZ099-100-220700-
SOUTHERN MARYLAND AND THE DELMARVA PENINSULA

CITY           SKY/WX    TMP DP  RH WIND       PRES   REMARKS
PATUXENT RIVER CLOUDY    32  26  78 CALM      30.32S
BAY BRIDGE APT   N/A     32  27  80 CALM      30.33S
LEONARDTOWN    CLOUDY    30  27  86 CALM      30.33S
DOVER          PTCLDY    25  24  93 N6        30.30F
GEORGETOWN     MOCLDY    26  23  88 NE3       30.31F
EASTON         MOCLDY    29  26  89 CALM      30.35F
CAMBRIDGE      MOCLDY    32  27  80 NE3       30.31S
SALISBURY      CLOUDY    31  24  75 NW3       30.31F
OCEAN CITY     MOCLDY    29  25  85 N6        30.30F FOG
WALLOPS ISLAND CLOUDY    31  26  82 NW5       30.32R
ACCOMACK*      CLOUDY    30  28  93 NE5       30.30F
$$

NCZ012>017-030>032-220700-
NORTH CENTRAL AND EASTERN NORTH CAROLINA

CITY           SKY/WX    TMP DP  RH WIND       PRES   REMARKS
ROANOKE RAPIDS RAIN      36  32  87 NE7       30.24F
RALEIGH        LGT RAIN  40  32  73 NE8       30.22F
ELIZABETH CITY CLOUDY    47  38  71 NE13      30.23F
AHOSKIE*       CLOUDY    37  32  79 N7        30.25F
EDENTON*       CLOUDY    41  36  82 NE9       30.21F
CURRITUCK*     CLOUDY    44  37  76 NE7       30.25F
KILL DEVIL HLS CLOUDY    48  43  83 NE9       30.20F
MANTEO         CLOUDY    47  43  84 NE14G20   30.21F
CAPE HATTERAS  LGT RAIN  48  48 100 NE10      30.16F FOG
TARBORO*       CLOUDY    39  34  81 N8        30.24F
GOLDSBORO      MIX PCPN  41  41 100 NE6       30.15F
WASHINGTON     CLOUDY    41  37  85 NE7       30.19F
GREENVILLE     CLOUDY    41  36  81 NE8       30.21F
NEW BERN       CLOUDY    45  41  86 NE8       30.18F FOG
WILMINGTON     RAIN      44  43  96 NE8       30.12F FOG
$$

VAZ048-220700-
ELSEWHERE

CITY           SKY/WX    TMP DP  RH WIND       PRES   REMARKS
HARRISBURG PA  PTCLDY    22  19  89 CALM      30.31F
BALTIMORE      PTCLDY    29  22  75 CALM      30.32S
ANNAPOLIS      PTCLDY    31  27  85 CALM      30.33S
ANDREWS AFB    PTCLDY    27  22  82 CALM      30.32R
PHILADELPHIA   PTCLDY    29  21  72 N3        30.32F
HENDERSON NC   CLOUDY    37  29  72 NE7       30.23F
GREENSBORO     CLOUDY    40  33  76 NE8       30.19F
ROCKY MOUNT    CLOUDY    40  34  79 NE10      30.21F
$$

VAZ100-220700-
MARINE

STATION/POSITION TIME  TEMP    WIND        PRES    WAVE   SWELL
                       AIR SEA DIR/SP/G            HT/PER HT/PER
                 (UTC) (F)     (DEG/KT/KT) (MB)    (FT/S) (FT/S)
CAPE MAY NJ      0600   31 43   50/  2/  5 1026.2F
LEWES DE         0600   37 42   50/ 11/ 13 1026.3F
15NM E FENWICK I 0600   40 45              1025.9F   1/10
OCEAN-CITY-INLET 0600   35 43  360/  7/  8 1025.6F
WACHAPREAGUE VA  0600   34 41  360/  2/  3 1026.0S
THOMAS POINT MD  0600   34 40   50/  7/  8 1028.1R
GOOSES REEF MD   0600   36     VRB 10/ 12  1025.7S
COVE POINT MD    0600   34      70/ 10/ 11 1026.3F
SOLOMONS ISLAND  0600      42                N/A
BISHOPS HEAD MD  0600   34 38   30/  6/ 10 1026.0S
POTOMAC MD       0600   38      90/ 10/ 10 1025.3F
CAMBRIDGE MD     0600   33 40   70/  5/  6 1026.5F
LEWISETTA VA     0600   38 41   70/  8/ 11 1026.0F
RAPPAHANNOCK LGT 0600           30/ 10/ 11 1026.2F
STINGRAY PT      0600   40      70/  8/ 10 1026.2F
YORK RVR RNG VA  0600   41      60/ 10/ 11 1025.0S
YORKTOWN VA      0600   39 45   40/  6/  7 1025.4F
JAMESTOWN VA     0600   36      60/  4/  6   N/A
DOMINION TERM VA 0600   39      40/  5/  6 1025.3F
KIPTOPEKE VA     0600      48   60/  3/  6   N/A
CHES BAY BRIDGE  0600   41 45   30/ 11/ 14 1024.8R
CAPE HENRY VA    0600   43      50/ 13/ 15 1023.9R
CHESAPEAKE LGHT  0500   44      60/ 15/ 16 1025.8F
WILLOUBY STN VA  0600   41      40/ 13/ 15 1025.5F
S CRANEY ISL VA  0600           40/ 10/ 12 1024.8F
CAPE HENRY BUOY  0600      49                N/A     3/ 4
1ST LANDING BUOY 0600   42      30/ 12/ 14 1024.8S
CAPE CHARLES BUO 0600      46                N/A     2/ 3   2/11
64NM E OF VA BCH 0600   50 54   40/ 17/ 19 1023.4F   3/ 4   2/10
DUCK PIER NC     0600   47 46   40/ 18/ 21 1022.4F
44100 DUCK FRF   0600      51                N/A     4/ 5
44056 DUCK FRF   0600      46                N/A     4/ 5
OREGON INLET NC  0600   48 48   10/ 12/ 18 1022.5F
HATTERAS NC      0600   48 49   30/ 12/ 14 1021.6F
DIAMOND SHLS NC  0600   63                 1020.4F   4/ 5
CAPE LOOKOUT NC  0500   47      20/ 16/ 20 1021.0F
$$


USA.gov is the U.S. government's official web portal to all federal, state and local government web resources and services.